FW2111 Weather Reports


Display with metric or nautical units.
time (UTC)temp
F
wind
direction
speed
MPH
gust
MPH
rain 1hr
in
rain 24hr
in
rain mn
in
humidity
%
barometer
mb
20260507105043 36 282 4.0 11.0 0.00 0.00 0.00 52 1012.6
20260507104519 36 279 4.0 11.0 0.00 0.00 0.00 52 1012.5
20260507104014 36 307 4.0 8.0 0.00 0.00 0.00 52 1012.6
20260507103513 36 258 4.0 10.0 0.00 0.00 0.00 51 1012.5
20260507103013 36 283 4.0 10.0 0.00 0.00 0.00 51 1012.5
20260507102511 36 303 4.0 9.0 0.00 0.00 0.00 51 1012.5
20260507102011 36 278 4.0 12.0 0.00 0.00 0.00 51 1012.5
20260507101449 36 273 4.0 9.0 0.00 0.00 0.00 51 1012.5
20260507100926 36 297 3.0 9.0 0.00 0.00 0.00 51 1012.4
20260507100654 36 261 3.0 8.0 0.00 0.00 0.00 51 1012.4
20260507095858 36 296 4.0 9.0 0.00 0.00 0.00 51 1012.5
20260507095333 36 286 4.0 8.0 0.00 0.00 0.00 51 1012.5
20260507095044 36 288 3.0 8.0 0.00 0.00 0.00 51 1012.5
20260507094315 36 263 3.0 9.0 0.00 0.00 0.00 51 1012.5
20260507093810 37 263 3.0 9.0 0.00 0.00 0.00 51 1012.5
20260507093311 37 287 3.0 9.0 0.00 0.00 0.00 51 1012.5
20260507092809 37 240 3.0 8.0 0.00 0.00 0.00 51 1012.5
20260507092308 37 290 3.0 7.0 0.00 0.00 0.00 51 1012.5
20260507091754 37 311 4.0 10.0 0.00 0.00 0.00 50 1012.5
20260507091232 37 254 3.0 10.0 0.00 0.00 0.00 50 1012.6
20260507090704 37 327 3.0 9.0 0.00 0.00 0.00 50 1012.5
20260507090408 37 313 3.0 9.0 0.00 0.00 0.00 50 1012.7
20260507085632 37 234 4.0 10.0 0.00 0.00 0.00 50 1012.6
20260507085131 37 296 4.0 10.0 0.00 0.00 0.00 50 1012.6
20260507084605 37 276 3.0 8.0 0.00 0.00 0.00 50 1012.7
20260507084102 38 282 2.0 8.0 0.00 0.00 0.00 50 1012.7
20260507083559 38 19 2.0 4.0 0.00 0.00 0.00 49 1012.7
20260507083055 38 259 3.0 6.0 0.00 0.00 0.00 49 1012.7
20260507082556 38 290 3.0 6.0 0.00 0.00 0.00 49 1012.7
20260507082054 38 263 3.0 8.0 0.00 0.00 0.00 49 1012.7
20260507081550 38 238 3.0 8.0 0.00 0.00 0.00 48 1012.7
20260507081048 39 345 3.0 8.0 0.00 0.00 0.00 48 1012.8
20260507080815 39 298 3.0 7.0 0.00 0.00 0.00 48 1012.8
20260507080040 39 284 4.0 11.0 0.00 0.00 0.00 48 1012.8
20260507075537 39 348 4.0 11.0 0.00 0.00 0.00 48 1012.8
20260507075011 39 323 2.0 7.0 0.00 0.00 0.00 48 1012.8
20260507074444 39 263 2.0 7.0 0.00 0.00 0.00 48 1012.8
20260507073918 39 263 3.0 6.0 0.00 0.00 0.00 48 1012.9
20260507073908 39 318 2.0 7.0 0.00 0.00 0.00 48 1013.0
20260507072908 39 282 1.0 4.0 0.00 0.00 0.00 48 1012.9
20260507072341 39 290 1.0 3.0 0.00 0.00 0.00 47 1013.0
20260507071838 39 302 2.0 6.0 0.00 0.00 0.00 47 1013.1
20260507071813 39 252 2.0 6.0 0.00 0.00 0.00 48 1013.1
20260507070808 39 241 2.0 4.0 0.00 0.00 0.00 48 1013.1
20260507070241 39 263 2.0 6.0 0.00 0.00 0.00 48 1013.1
20260507065734 39 281 1.0 6.0 0.00 0.00 0.00 48 1013.2
20260507065208 39 259 1.0 6.0 0.00 0.00 0.00 48 1013.3
20260507064642 39 222 1.0 4.0 0.00 0.00 0.00 49 1013.3
20260507064139 39 245 1.0 4.0 0.00 0.00 0.00 49 1013.2
20260507063636 39 245 1.0 2.0 0.00 0.00 0.00 49 1013.3
20260507063613 39 245 0.0 2.0 0.00 0.00 0.00 49 1013.3
20260507062544 39 246 1.0 3.0 0.00 0.00 0.00 48 1013.5
20260507062040 39 246 1.0 3.0 0.00 0.00 0.00 48 1013.4
20260507061514 39 253 0.0 3.0 0.00 0.00 0.00 48 1013.5
20260507060947 39 254 0.0 1.0 0.00 0.00 0.00 49 1013.6
20260507060422 39 254 1.0 3.0 0.00 0.00 0.00 48 1013.6
20260507055900 39 254 1.0 3.0 0.00 0.00 0.00 48 1013.7
20260507055619 39 255 0.0 2.0 0.00 0.00 0.00 48 1013.7
20260507055051 39 255 1.0 2.0 0.00 0.00 0.00 49 1013.7
20260507054256 39 255 0.0 3.0 0.00 0.00 0.00 49 1013.8
20260507053730 38 255 1.0 3.0 0.00 0.00 0.00 49 1013.8
20260507053433 38 255 1.0 3.0 0.00 0.00 0.00 50 1013.8
20260507052636 38 255 2.0 3.0 0.00 0.00 0.00 50 1013.9
20260507052109 38 255 2.0 3.0 0.00 0.00 0.00 51 1013.9
20260507051605 38 256 2.0 4.0 0.00 0.00 0.00 50 1013.9
20260507051058 38 256 3.0 4.0 0.00 0.00 0.00 51 1013.9
20260507050556 38 254 2.0 4.0 0.00 0.00 0.00 51 1014.1
20260507050029 38 252 1.0 4.0 0.00 0.00 0.00 51 1014.0
20260507045504 38 252 0.0 0.0 0.00 0.00 0.00 51 1014.1
20260507044936 38 252 0.0 0.0 0.00 0.00 0.00 51 1014.1
20260507044435 38 252 0.0 0.0 0.00 0.00 0.00 50 1014.1
20260507043921 38 251 0.0 0.0 0.00 0.00 0.00 50 1014.1
20260507043426 38 251 0.0 0.0 0.00 0.00 0.00 50 1014.1
20260507043127 38 251 0.0 0.0 0.00 0.00 0.00 50 1014.2
20260507042354 38 251 0.0 0.0 0.00 0.00 0.00 51 1014.2
20260507041826 39 251 0.0 0.0 0.00 0.00 0.00 50 1014.2
20260507041323 39 251 0.0 0.0 0.00 0.00 0.00 50 1014.3
20260507040757 39 251 0.0 0.0 0.00 0.00 0.00 50 1014.3
20260507040254 39 251 0.0 1.0 0.00 0.00 0.00 49 1014.4
20260507035728 39 251 0.0 1.0 0.00 0.00 0.00 48 1014.4
20260507035202 40 251 0.0 1.0 0.00 0.00 0.00 48 1014.5
20260507034642 40 251 0.0 1.0 0.00 0.00 0.00 47 1014.5
20260507034336 40 251 0.0 1.0 0.00 0.00 0.00 47 1014.5
20260507033601 40 250 0.0 2.0 0.00 0.00 0.00 47 1014.5
20260507033059 40 250 0.0 2.0 0.00 0.00 0.00 47 1014.4
20260507032556 40 251 0.0 2.0 0.00 0.00 0.00 46 1014.5
20260507032039 40 250 0.0 2.0 0.00 0.00 0.00 47 1014.6
20260507031541 40 251 0.0 1.0 0.00 0.00 0.00 47 1014.7
20260507031037 40 251 0.0 0.0 0.00 0.00 0.00 46 1014.7
20260507030812 40 251 0.0 2.0 0.00 0.00 0.00 46 1014.6
20260507030012 40 251 0.0 2.0 0.00 0.00 0.00 45 1014.6
20260507025512 40 252 1.0 2.0 0.00 0.00 0.00 45 1014.7
20260507025007 40 252 1.0 3.0 0.00 0.00 0.00 45 1014.7
20260507024736 40 252 1.0 3.0 0.00 0.00 0.00 45 1014.6
20260507023956 40 252 1.0 2.0 0.00 0.00 0.00 45 1014.7
20260507023455 40 256 1.0 3.0 0.00 0.00 0.00 45 1014.6
20260507022928 40 257 1.0 3.0 0.00 0.00 0.00 45 1014.7
20260507022631 40 257 1.0 3.0 0.00 0.00 0.00 45 1014.6
20260507021858 41 263 2.0 7.0 0.00 0.00 0.00 44 1014.7
20260507021340 41 265 2.0 8.0 0.00 0.00 0.00 44 1014.6
20260507021048 41 305 1.0 4.0 0.00 0.00 0.00 43 1014.6
20260507020812 41 216 1.0 8.0 0.00 0.00 0.00 44 1014.6
20260507015744 41 261 1.0 6.0 0.00 0.00 0.00 43 1014.5
20260507015218 41 259 2.0 6.0 0.00 0.00 0.00 43 1014.5
20260507014716 41 276 2.0 4.0 0.00 0.00 0.00 43 1014.4
20260507014212 42 232 3.0 10.0 0.00 0.00 0.00 43 1014.4
20260507013714 42 246 3.0 10.0 0.00 0.00 0.00 43 1014.4
20260507013147 42 217 2.0 7.0 0.00 0.00 0.00 42 1014.5
20260507012914 42 319 3.0 7.0 0.00 0.00 0.00 42 1014.4
20260507012118 42 284 3.0 8.0 0.00 0.00 0.00 42 1014.5
20260507011843 42 283 3.0 8.0 0.00 0.00 0.00 42 1014.4
20260507011345 42 312 3.0 9.0 0.00 0.00 0.00 42 1014.5
20260507010547 42 242 4.0 9.0 0.00 0.00 0.00 42 1014.5
20260507010255 42 150 4.0 9.0 0.00 0.00 0.00 43 1014.5
20260507005458 42 261 4.0 8.0 0.00 0.00 0.00 42 1014.4
20260507005225 42 265 4.0 14.0 0.00 0.00 0.00 43 1014.4
20260507004429 42 300 4.0 14.0 0.00 0.00 0.00 43 1014.4
20260507003904 42 211 5.0 12.0 0.00 0.00 0.00 42 1014.4
20260507003343 42 247 5.0 12.0 0.00 0.00 0.00 42 1014.5
20260507002836 42 268 4.0 12.0 0.00 0.00 0.00 43 1014.5
20260507002335 42 262 4.0 10.0 0.00 0.00 0.00 43 1014.5
20260507001834 42 338 4.0 10.0 0.00 0.00 0.00 44 1014.6
20260507001332 42 244 5.0 10.0 0.00 0.00 0.00 44 1014.5
20260507000832 42 310 4.0 10.0 0.00 0.00 0.00 44 1014.5
20260507000336 42 263 4.0 10.0 0.00 0.00 0.00 44 1014.6
20260507000048 42 315 5.0 11.0 0.00 0.00 0.00 43 1014.6
20260506235319 42 288 5.0 10.0 0.00 0.00 0.00 44 1014.6
20260506234806 42 233 6.0 14.0 0.00 0.00 0.00 42 1014.6
20260506234305 43 284 7.0 14.0 0.00 0.00 0.00 41 1014.6
20260506234038 43 261 7.0 18.0 0.00 0.00 0.00 41 1014.6
20260506233249 43 246 6.0 18.0 0.00 0.00 0.00 41 1014.6
20260506232745 43 286 5.0 13.0 0.00 0.00 0.00 40 1014.7
20260506232229 43 254 7.0 13.0 0.00 0.00 0.00 40 1014.7
20260506231728 43 280 6.0 13.0 0.00 0.00 0.00 39 1014.6
20260506231205 43 243 6.0 15.0 0.00 0.00 0.00 39 1014.5
20260506230644 43 216 7.0 15.0 0.00 0.00 0.00 39 1014.5
20260506230119 43 12 7.0 16.0 0.00 0.00 0.00 39 1014.6
20260506225554 43 228 8.0 16.0 0.00 0.00 0.00 38 1014.6
20260506225050 43 263 6.0 14.0 0.00 0.00 0.00 38 1014.6
20260506224551 43 249 5.0 14.0 0.00 0.00 0.00 39 1014.6
20260506224530 43 288 7.0 14.0 0.00 0.00 0.00 38 1014.6
20260506223528 43 284 8.0 16.0 0.00 0.00 0.00 38 1014.6
20260506223002 43 247 7.0 16.0 0.00 0.00 0.00 38 1014.6
20260506222502 44 232 6.0 16.0 0.00 0.00 0.00 37 1014.5
20260506222232 44 218 6.0 15.0 0.00 0.00 0.00 37 1014.5
20260506221433 44 261 5.0 15.0 0.00 0.00 0.00 37 1014.5
20260506220906 44 272 5.0 13.0 0.00 0.00 0.00 37 1014.5
20260506220338 44 219 6.0 16.0 0.00 0.00 0.00 37 1014.5
20260506215835 43 238 7.0 16.0 0.00 0.00 0.00 37 1014.4
20260506215330 44 326 6.0 15.0 0.00 0.00 0.00 37 1014.5
20260506214830 44 228 5.0 15.0 0.00 0.00 0.00 37 1014.5
20260506214301 44 260 6.0 15.0 0.00 0.00 0.00 36 1014.4
20260506214029 44 257 9.0 17.0 0.00 0.00 0.00 36 1014.5
20260506213257 44 296 8.0 17.0 0.00 0.00 0.00 36 1014.5
20260506212730 44 276 6.0 14.0 0.00 0.00 0.00 35 1014.6
20260506212203 44 265 7.0 14.0 0.00 0.00 0.00 36 1014.4
20260506211701 44 294 5.0 14.0 0.00 0.00 0.00 37 1014.6
20260506211134 44 193 6.0 13.0 0.00 0.00 0.00 37 1014.5
20260506210629 44 267 6.0 15.0 0.00 0.00 0.00 37 1014.5
20260506210127 44 246 6.0 15.0 0.00 0.00 0.00 36 1014.3
20260506205601 44 277 8.0 16.0 0.00 0.00 0.00 36 1014.5
20260506205306 44 272 6.0 15.0 0.00 0.00 0.00 36 1014.6
20260506204531 44 235 6.0 15.0 0.00 0.00 0.00 36 1014.5
20260506204004 44 138 5.0 11.0 0.00 0.00 0.00 36 1014.6
20260506203732 44 226 6.0 15.0 0.00 0.00 0.00 38 1014.6
20260506202934 44 218 7.0 16.0 0.00 0.00 0.00 38 1014.7
20260506202431 44 355 5.0 16.0 0.00 0.00 0.00 38 1014.7
20260506201927 44 279 4.0 12.0 0.00 0.00 0.00 39 1014.6
20260506201655 43 281 6.0 12.0 0.00 0.00 0.00 39 1014.7
20260506201130 43 288 7.0 15.0 0.00 0.00 0.00 39 1014.7
20260506200354 43 259 7.0 15.0 0.00 0.00 0.00 39 1014.8
20260506195854 43 281 9.0 18.0 0.00 0.00 0.00 40 1014.7
20260506195325 43 306 8.0 18.0 0.00 0.00 0.00 40 1014.8
20260506194824 43 279 8.0 20.0 0.00 0.00 0.00 40 1015.0
20260506194255 43 319 8.0 20.0 0.00 0.00 0.00 40 1015.0
20260506193754 43 251 6.0 16.0 0.00 0.00 0.00 41 1014.9
20260506193227 43 319 7.0 16.0 0.00 0.00 0.00 42 1014.8
20260506192703 43 281 6.0 16.0 0.00 0.00 0.00 41 1014.8
20260506192135 43 324 6.0 15.0 0.00 0.00 0.00 42 1014.9
20260506191631 42 257 6.0 17.0 0.00 0.00 0.00 43 1014.8
20260506191129 42 286 7.0 20.0 0.00 0.00 0.00 43 1015.0
20260506190602 42 271 9.0 20.0 0.00 0.00 0.00 43 1015.0
20260506190058 42 278 9.0 18.0 0.00 0.00 0.00 42 1014.9
20260506185530 42 284 9.0 16.0 0.00 0.00 0.00 40 1014.9
20260506185001 42 261 7.0 15.0 0.00 0.00 0.00 40 1014.8
20260506184459 42 236 6.0 16.0 0.00 0.00 0.00 41 1014.9
20260506183931 42 336 7.0 16.0 0.00 0.00 0.00 39 1014.9
20260506183428 42 283 7.0 16.0 0.00 0.00 0.00 39 1014.9
20260506182904 42 229 5.0 15.0 0.00 0.00 0.00 39 1015.0
20260506182605 42 257 7.0 14.0 0.00 0.00 0.00 40 1014.9
20260506181831 42 290 8.0 18.0 0.00 0.00 0.00 39 1015.0
20260506181305 41 277 7.0 18.0 0.00 0.00 0.00 39 1014.9
20260506181241 42 250 5.0 13.0 0.00 0.00 0.00 39 1014.9
20260506180234 42 39 7.0 15.0 0.00 0.00 0.00 41 1015.0
20260506175709 41 279 7.0 15.0 0.00 0.00 0.00 39 1015.1
20260506175141 42 316 7.0 13.0 0.00 0.00 0.00 39 1015.0
20260506174617 42 321 7.0 20.0 0.00 0.00 0.00 39 1015.0
20260506174115 41 266 7.0 20.0 0.00 0.00 0.00 39 1015.1
20260506173613 41 283 8.0 18.0 0.00 0.00 0.00 39 1015.0
20260506173100 41 244 8.0 18.0 0.00 0.00 0.00 39 1015.2
20260506172835 41 313 9.0 21.0 0.00 0.00 0.00 39 1015.2
20260506172307 41 281 8.0 21.0 0.00 0.00 0.00 39 1015.1
20260506171512 41 288 7.0 17.0 0.00 0.00 0.00 39 1015.2
20260506170947 41 322 7.0 17.0 0.00 0.00 0.00 40 1015.2
20260506170450 40 211 7.0 15.0 0.00 0.00 0.00 41 1015.1
20260506165924 40 293 8.0 22.0 0.00 0.00 0.00 40 1015.3
20260506165653 41 309 8.0 22.0 0.00 0.00 0.00 41 1015.3
20260506165127 40 234 6.0 15.0 0.00 0.00 0.00 41 1015.1
20260506164357 41 243 6.0 15.0 0.00 0.00 0.00 40 1015.4
20260506163827 40 281 8.0 16.0 0.00 0.00 0.00 42 1015.3
20260506163311 39 236 7.0 16.0 0.00 0.00 0.00 42 1015.3
20260506162809 40 275 6.0 15.0 0.00 0.00 0.00 42 1015.3
20260506162540 39 327 7.0 15.0 0.00 0.00 0.00 42 1015.6
20260506161811 40 328 5.0 14.0 0.00 0.00 0.00 42 1015.5
20260506161257 40 274 5.0 14.0 0.00 0.00 0.00 42 1015.5
20260506161030 40 264 7.0 14.0 0.00 0.00 0.00 43 1015.5
20260506160243 39 231 7.0 11.0 0.00 0.00 0.00 43 1015.5
20260506155739 39 249 7.0 14.0 0.00 0.00 0.00 43 1015.5
20260506155233 39 287 6.0 12.0 0.00 0.00 0.00 43 1015.5
20260506154733 39 340 6.0 12.0 0.00 0.00 0.00 43 1015.4
20260506154444 39 334 7.0 14.0 0.00 0.00 0.00 44 1015.5
20260506153714 38 242 7.0 14.0 0.00 0.00 0.00 44 1015.5
20260506153155 38 273 5.0 15.0 0.00 0.00 0.00 45 1015.4
20260506152650 38 339 6.0 16.0 0.00 0.00 0.00 45 1015.5
20260506152147 38 296 7.0 16.0 0.00 0.00 0.00 44 1015.4
20260506151619 38 317 7.0 17.0 0.00 0.00 0.00 44 1015.5
20260506151119 38 321 7.0 17.0 0.00 0.00 0.00 44 1015.5
20260506150618 38 238 7.0 13.0 0.00 0.00 0.00 45 1015.5
20260506150100 38 279 7.0 18.0 0.00 0.00 0.00 45 1015.6
20260506150047 38 0 7.0 18.0 0.00 0.00 0.00 45 1015.6
20260506145012 38 288 7.0 15.0 0.00 0.00 0.00 45 1015.6
20260506144456 38 223 6.0 14.0 0.00 0.00 0.00 45 1015.5
20260506143955 38 238 6.0 13.0 0.00 0.00 0.00 45 1015.6
20260506143719 38 286 5.0 13.0 0.00 0.00 0.00 44 1015.6
20260506142947 38 302 5.0 14.0 0.00 0.00 0.00 44 1015.8
20260506142451 38 289 6.0 15.0 0.00 0.00 0.00 45 1015.8
20260506141927 37 248 6.0 15.0 0.00 0.00 0.00 45 1015.6
20260506141404 37 298 6.0 13.0 0.00 0.00 0.00 46 1015.8
20260506140839 37 235 7.0 15.0 0.00 0.00 0.00 45 1015.9
20260506140313 37 242 7.0 15.0 0.00 0.00 0.00 45 1015.9
20260506135813 37 245 7.0 16.0 0.00 0.00 0.00 45 1015.8
20260506135255 37 292 7.0 16.0 0.00 0.00 0.00 45 1015.6
20260506134723 37 311 6.0 14.0 0.00 0.00 0.00 45 1015.6
20260506134219 37 311 6.0 16.0 0.00 0.00 0.00 45 1015.6
20260506133718 37 248 6.0 16.0 0.00 0.00 0.00 45 1015.6
20260506133153 37 298 7.0 16.0 0.00 0.00 0.00 44 1015.5
20260506132650 38 255 8.0 19.0 0.00 0.00 0.00 46 1015.5
20260506132149 37 292 8.0 19.0 0.00 0.00 0.00 46 1015.5
20260506131646 37 306 8.0 19.0 0.00 0.00 0.00 47 1015.3
20260506131120 36 312 9.0 17.0 0.00 0.00 0.00 47 1015.4
20260506130824 36 304 8.0 15.0 0.00 0.00 0.00 48 1015.3
20260506130324 36 43 5.0 15.0 0.00 0.00 0.00 49 1015.3
20260506125522 36 346 5.0 10.0 0.00 0.00 0.00 48 1015.4
20260506124956 36 284 4.0 11.0 0.00 0.00 0.00 48 1015.3
20260506124442 35 310 5.0 11.0 0.00 0.00 0.00 49 1015.4
20260506123941 35 257 5.0 12.0 0.00 0.00 0.00 50 1015.2
20260506123715 35 279 5.0 12.0 0.00 0.00 0.00 51 1015.3
20260506122921 34 266 6.0 13.0 0.00 0.00 0.00 51 1015.1
20260506122412 34 313 5.0 13.0 0.00 0.00 0.00 52 1015.1
20260506121848 33 299 3.0 10.0 0.00 0.00 0.00 53 1015.0
20260506121323 33 269 2.0 7.0 0.00 0.00 0.00 53 1015.0
20260506120754 32 207 2.0 7.0 0.00 0.00 0.00 54 1014.9
20260506120227 32 284 3.0 8.0 0.00 0.00 0.00 54 1014.9
20260506115954 32 265 4.0 9.0 0.00 0.00 0.00 54 1014.9
20260506115158 32 292 3.0 7.0 0.00 0.00 0.00 53 1014.8
20260506114632 32 267 2.0 4.0 0.00 0.00 0.00 54 1014.8
20260506114335 32 223 2.0 5.0 0.00 0.00 0.00 54 1014.8
20260506113833 32 250 2.0 5.0 0.00 0.00 0.00 54 1014.7
20260506113036 32 290 2.0 7.0 0.00 0.00 0.00 54 1014.5
20260506112532 32 254 2.0 6.0 0.00 0.00 0.00 54 1014.5
20260506112030 32 221 3.0 8.0 0.00 0.00 0.00 54 1014.6
20260506111525 32 263 3.0 7.0 0.00 0.00 0.00 54 1014.5
20260506111000 32 269 2.0 7.0 0.00 0.00 0.00 53 1014.6
20260506110454 32 254 2.0 7.0 0.00 0.00 0.00 53 1014.6
20260506105952 32 267 2.0 6.0 0.00 0.00 0.00 53 1014.5